Home   Weather   34°05'N, 117°45'W   Past weeks
Flag for USA

Past Weather in 34°05'N, 117°45'W, USA — Yesterday and Last 2 Weeks

Now
48 °F

Clear.


Feels Like: 48 °F
Forecast: 66 / 50 °F
Wind: No wind

Location: Chino Airport

Current Time: Mar 23, 2019 at 2:08:11 am

Latest Report: Mar 23, 2019 at 12:53 am


Visibility: 10 mi

Pressure: 30.17 "Hg

Humidity: 89%

Dew Point: 45 °F

Location of 34°05'N, 117°45'WLocation

Past Weather in 34°05'N, 117°45'W — Graph

°F

34°05'N, 117°45'W Temperature Yesterday

Maximum temperature yesterday: 64 °F (at 3:53 pm)
Minimum temperature yesterday: 44 °F (at 6:53 am)
Average temperature yesterday: 53 °F

High & Low Weather Summary for the Past Weeks

 TemperatureHumidityPressure
High81 °F (Mar 17, 1:53 pm)100% (Mar 8, 4:53 am)30.21 "Hg (Mar 8, 4:53 am)
Low39 °F (Mar 9, 5:53 am)16% (Mar 14, 12:53 pm)29.73 "Hg (Mar 12, 3:53 pm)
Average55 °F67%30.01 "Hg
* Reported Mar 7 11:53 pm — Mar 23 12:53 am, 34°05'N, 117°45'W. Weather by CustomWeather, © 2019

Note: Actual official high and low records may vary slightly from our data, if they occured in-between our weather recording intervals... More about our weather records

Advertising

34°05'N, 117°45'W Weather History for the Previous 24 Hours

Scroll right to see more
 ConditionsComfort  
Time TempWeatherWind HumidityBarometerVisibility
12:53 am
Sat, Mar 23
48 °FClear.No wind89%30.17 "Hg10 mi
11:53 pm
Fri, Mar 22
50 °FClear.3 mph86%30.17 "Hg10 mi
10:53 pm49 °FClear.3 mph90%30.18 "Hg10 mi
9:53 pm51 °FClear.5 mph86%30.16 "Hg10 mi
8:53 pm51 °FClear.8 mph86%30.15 "Hg10 mi
7:53 pm53 °FPassing clouds.7 mph83%30.14 "Hg10 mi
6:53 pm56 °FPartly sunny.8 mph77%30.12 "Hg10 mi
5:53 pm60 °FSunny.12 mph67%30.11 "Hg10 mi
4:53 pm62 °FScattered clouds.10 mph62%30.11 "Hg10 mi
3:53 pm64 °FScattered clouds.8 mph54%30.12 "Hg10 mi
2:53 pm63 °FBroken clouds.7 mph56%30.13 "Hg10 mi
1:53 pm62 °FScattered clouds.No wind58%30.14 "Hg10 mi
12:53 pm59 °FPartly sunny.6 mph67%30.17 "Hg10 mi
11:53 am58 °FPartly sunny.3 mph67%30.19 "Hg10 mi
10:53 am57 °FPartly sunny.5 mph72%30.19 "Hg10 mi
9:53 am54 °FScattered clouds.No wind80%30.19 "Hg10 mi
8:53 am51 °FScattered clouds.No wind86%30.20 "Hg10 mi
7:53 am47 °FScattered clouds.6 mph93%30.19 "Hg10 mi
6:53 am44 °FScattered clouds.No wind100%30.18 "Hg10 mi
5:53 am46 °FPassing clouds.No wind96%30.15 "Hg10 mi
4:53 am48 °FClear.No wind93%30.14 "Hg10 mi
3:53 am49 °FOvercast.3 mph97%30.15 "Hg10 mi
2:53 am50 °FMostly cloudy.No wind93%30.15 "Hg10 mi
Weather by CustomWeather, © 2019

See weather overview